Location: Rounton
(54.4000°N, 1.3500°W)
Time: 13:51:49
(UTC+00:00)

Transit 4A - Pass Details

Date: 04 December 2021
Orbit: 864 x 981 km, 66.8° (Epoch: 18 January)

Event Time Altitude Azimuth Distance (km) Brightness Sun altitude
Rises 01:20:18 0° 309° (NW) 3,562 - -54.1°
Reaches altitude 10° 01:23:05 10° 319° (NW) 2,638 - -53.9°
Maximum altitude 01:28:36 33° 22° (NNE) 1,538 - -53.4°
Drops below altitude 10° 01:34:15 10° 86° (E) 2,701 - -52.9°
Sets 01:37:07 0° 96° (E) 3,659 - -52.6°
